Location: Sternwarte_Laufen
(47.9344°N, 12.9346°E)
Time: 04:33:15
(UTC+02:00)

ISS - Pass Details

Date: 14 July 2025
Orbit: 413 x 417 km, 51.6° (Epoch: 12 July)

Event Time Altitude Azimuth Distance (km) Brightness Sun altitude
Rises 22:44:29 0° 278° (W) 2,352 0.7 -12.8°
Reaches altitude 10° 22:46:39 10° 286° (WNW) 1,490 -0.2 -13.1°
Maximum altitude 22:49:51 42° 359° (N) 610 -2.5 -13.4°
Drops below altitude 10° 22:53:04 10° 72° (ENE) 1,492 -1.1 -13.7°
Enters shadow 22:54:45 - 78° (ENE) 2,161 -0.4 -13.8°
